Weather History for Tulsa, OK

Change the Weather History Date:

Saturday, January 5, 2013

  Actual Average Record
Temperature  
Mean Temperature 37 °F 37 °F  
Max Temperature 48 °F 47 °F 73 °F (1984)
Min Temperature 26 °F 28 °F -7 °F (1947)
Degree Days  
Heating Degree Days 28 28  
Month to date heating degree days 162 140  
Since 1 July heating degree days 1414 1568  
Moisture  
Dew Point 30 °F    
Average Humidity 69    
Maximum Humidity 85    
Minimum Humidity 53    
Precipitation  
Precipitation T in 0.05 in 1.28 in (1929)
Month to date precipitation T 0.28  
Year to date precipitation T 0.28  
Sea Level Pressure  
Sea Level Pressure 30.25 in    
Wind  
Wind Speed 8 mph (SSW)    
Max Wind Speed 17 mph    
Max Gust Speed 22 mph    
Visibility 10 miles    
Events Rain    
T = Trace of Precipitation, MM = Missing Value Source: NWS Daily Summary

Daily Weather History Graph

Daily Weather History Graph

Search for Another Location

Airport:

Trip Planner

Search our weather history database for the weather conditions in past years. The results will help you decide how hot, cold, wet, or windy it might be!

Date:

Astronomy

Jan. 05, 2013 Rise Set
Actual Time 7:35 AM CST 5:23 PM CST
Civil Twilight 7:06 AM CST 5:51 PM CST
Nautical Twilight 6:34 AM CST 6:23 PM CST
Astronomical Twilight 6:03 AM CST 6:54 PM CST
Moon 12:48 AM CST (1/5) 12:08 PM CST (1/5)
Length of Visible Light 10h 45m
Length of Day
9h 48m
Last Quarter, 44% of the Moon is Illuminated
Jan 5
Last Quarter
Jan 11
New
Jan 18
First Quarter
Jan 26
Full
Feb 3
Last Quarter

Hourly Weather History & Observations

Time (CST) Temp. Windchill Dew Point Humidity Pressure Visibility Wind Dir Wind Speed Gust Speed Precip Events Conditions
12:53 AM 36.0 °F 32.1 °F 25.0 °F 64% 30.32 in 10.0 mi South 4.6 mph - N/A   Overcast
1:53 AM 39.9 °F 33.9 °F 25.0 °F 55% 30.30 in 10.0 mi South 9.2 mph - 0.00 in Rain Light Rain
2:53 AM 37.9 °F 33.5 °F 27.0 °F 65% 30.32 in 10.0 mi SSW 5.8 mph - 0.00 in Rain Light Rain
3:17 AM 39.2 °F 32.5 °F 30.2 °F 70% 30.30 in 10.0 mi SSW 10.4 mph - 0.00 in Rain Light Rain
3:43 AM 37.4 °F 32.8 °F 28.4 °F 70% 30.29 in 10.0 mi SSE 5.8 mph - 0.00 in   Overcast
3:53 AM 39.0 °F 32.3 °F 28.0 °F 65% 30.30 in 10.0 mi South 10.4 mph - 0.00 in   Overcast
4:53 AM 39.9 °F 32.9 °F 30.9 °F 70% 30.28 in 10.0 mi South 11.5 mph - N/A   Overcast
5:53 AM 39.9 °F 34.5 °F 32.0 °F 73% 30.27 in 10.0 mi South 8.1 mph - N/A   Overcast
6:53 AM 39.9 °F 33.4 °F 32.0 °F 73% 30.27 in 10.0 mi SSE 10.4 mph - N/A   Overcast
7:53 AM 39.0 °F 33.4 °F 30.0 °F 70% 30.28 in 10.0 mi South 8.1 mph - N/A   Overcast
8:33 AM 39.2 °F 32.5 °F 28.4 °F 65% 30.27 in 10.0 mi South 10.4 mph - N/A   Overcast
8:53 AM 39.9 °F 33.9 °F 28.9 °F 65% 30.28 in 10.0 mi SSE 9.2 mph - N/A   Overcast
9:53 AM 42.1 °F 35.2 °F 30.9 °F 65% 30.27 in 10.0 mi South 12.7 mph - N/A   Overcast
10:53 AM 45.0 °F 38.2 °F 33.1 °F 63% 30.24 in 10.0 mi South 15.0 mph - N/A   Partly Cloudy
11:37 AM 44.6 °F 39.2 °F 32.0 °F 61% 30.22 in 10.0 mi SSW 10.4 mph 18.4 mph N/A   Overcast
11:48 AM 44.6 °F 40.2 °F 32.0 °F 61% 30.22 in 10.0 mi SSW 8.1 mph 18.4 mph N/A   Overcast
11:53 AM 45.0 °F 40.6 °F 32.0 °F 60% 30.23 in 10.0 mi SW 8.1 mph 16.1 mph N/A   Overcast
12:53 PM 44.1 °F 36.8 °F 30.0 °F 58% 30.21 in 10.0 mi WSW 16.1 mph - N/A   Overcast
1:53 PM 46.0 °F 42.5 °F 30.9 °F 56% 30.19 in 10.0 mi SW 6.9 mph - N/A   Overcast
2:53 PM 46.9 °F - 30.0 °F 52% 30.17 in 10.0 mi SW 9.2 mph - N/A   Mostly Cloudy
3:53 PM 46.9 °F - 30.0 °F 52% 30.18 in 10.0 mi WSW 9.2 mph - N/A   Clear
4:53 PM 46.0 °F 41.9 °F 30.0 °F 54% 30.20 in 10.0 mi WSW 8.1 mph - N/A   Clear
5:53 PM 41.0 °F - 30.0 °F 65% 30.21 in 10.0 mi Calm Calm - N/A   Clear
6:53 PM 37.0 °F - 28.9 °F 73% 30.24 in 10.0 mi Calm Calm - N/A   Clear
7:53 PM 37.0 °F 34.5 °F 28.9 °F 73% 30.23 in 10.0 mi SSE 3.5 mph - N/A   Clear
8:53 PM 37.0 °F 33.3 °F 30.0 °F 76% 30.24 in 10.0 mi South 4.6 mph - N/A   Clear
9:53 PM 36.0 °F - 28.9 °F 76% 30.25 in 9.0 mi Calm Calm - N/A   Clear
10:53 PM 28.0 °F 22.8 °F 25.0 °F 88% 30.28 in 10.0 mi NW 4.6 mph - N/A   Clear
11:53 PM 33.1 °F 26.1 °F 28.0 °F 82% 30.29 in 10.0 mi West 8.1 mph - N/A   Clear